Regional Weather Roundup
Issued by NWS Charleston, SC

Current Version | Previous Version | Text Only | Print | Product List | Glossary Off
Versions: 1 2 3 4 5 6 7 8 9 10 11 12 13 14 15 16 17 18 19 20 21 22 23 24 25 26 27 28 29 30 31 32 33 34 35 36 37 38 39 40 41 42 43 44 45 46 47 48 49 50
000 ASUS42 KCHS 032027 RWRCHS REGIONAL WEATHER ROUNDUP NATIONAL WEATHER SERVICE CHARLESTON SC 300 PM EST SAT DEC 03 2016 NOTE: "FAIR" INDICATES FEW OR NO CLOUDS BELOW 12,000 FEET WITH NO SIGNIFICANT WEATHER AND/OR OBSTRUCTIONS TO VISIBILITY. NOT ALL STATIONS ARE QUALITY CONTROLLED. USE DATA WITH CAUTION... ESPECIALLY DEWPOINT OBSERVATIONS. SCZ027-030-031-034>040-042>050-032100- ...SOUTHEAST SOUTH CAROLINA... CITY SKY/WX TMP DP RH WIND PRES REMARKS N CHARLESTON PTSUNNY 58 34 40 CALM 30.22S WATERFRONT PRK N/A 56 39 53 NE5 30.21S MOUNT PLEASANT FAIR 57 36 44 CALM 30.22S JOHNS ISLAND FAIR 57 37 47 CALM 30.23S PINOPOLIS N/A 52 37 58 N7 30.15S MONCKS CORNER FAIR 54 34 47 N5 30.22F HAZE SUMMERVILLE FAIR 57 37 47 N3 30.24R BEAUFORT MCAS CLOUDY 60 37 42 E3 30.22S BEAUFORT ARPT FAIR 59 39 47 NE5 30.22S HILTON HEAD IS MOSUNNY 61 39 44 NE7 30.23S WALTERBORO PTCLDY 59 34 38 E3 30.22F ALLENDALE FAIR 57 36 44 CALM 30.21S ...SOUTHERN MIDLANDS AND PEE DEE... CITY SKY/WX TMP DP RH WIND PRES REMARKS GEORGETOWN FAIR 52 34 50 NW6 30.23F KINGSTREE FAIR 52 32 46 NW5 30.22F ORANGEBURG MOSUNNY 53 34 48 E5 30.22F BARNWELL NOT AVBL AIKEN FAIR 54 34 47 CALM 30.25S MANNING NOT AVBL COLUMBIA CLOUDY 56 33 42 VRB5 30.22F SUMTER CLOUDY 54 33 45 N6 30.21F FLORENCE PTSUNNY 54 32 43 CALM 30.23F MYRTLE BEACH PTSUNNY 54 30 40 N12 30.25S N MYRTLE BEACH CLOUDY 52 31 44 VRB7 30.22S $$ GAZ063-065-086>088-099>101-113>116-118-119-134>141-150-032100- ...SOUTHEAST GEORGIA... CITY SKY/WX TMP DP RH WIND PRES REMARKS SAVANNAH ARPT PTSUNNY 62 34 35 E9 30.21S HUNTER AAF PTSUNNY 60 44 56 E10 30.19R FORT STEWART CLOUDY 61 37 39 E3 30.18F STATESBORO SUNNY 64 36 36 S5 30.20S SYLVANIA CLEAR N/A N/A N/A E3 30.22S CLAXTON FAIR 64 39 40 NE5 30.20S ...CSRA...CENTRAL AND FAR SOUTHEAST GEORGIA... CITY SKY/WX TMP DP RH WIND PRES REMARKS THOMSON CLOUDY 58 37 44 CALM 30.26S AUGUSTA-BUSH MOSUNNY 59 33 37 E5 30.22R AUGUSTA-DANIEL MOSUNNY 57 32 38 CALM 30.22S SWAINSBORO MOCLDY 61 32 33 NE3 30.21R VIDALIA MOSUNNY 63 41 45 SE6 30.19S EASTMAN CLOUDY 65 7 10 S5 30.20S HAZLEHURST FAIR 64 37 37 SE3 30.18R ALMA CLOUDY 60 34 37 E5 30.19R WAYCROSS CLOUDY 64 41 44 E7 30.17F JESUP FAIR 63 46 55 E7 30.19S BAXLEY FAIR 61 41 48 E3 30.18S BRUNSWICK CLOUDY 63 48 59 NE9 30.19F SAINT SIMONS CLOUDY 62 43 49 NE12 30.18F $$ SCZ027-028-034-036>038-045-046-048>050-GAZ119-141-032100- ...LAKE AND SUPPLEMENTAL COASTAL OBSERVATIONS... STATION/POSITION TIME TEMP WIND PRES WAVE SWELL AIR SEA DIR/SP/G HT/PER HT/PER/DIR (UTC) (F) (DEG/KT/KT) (MB) (FT/S) (FT/S/D) WINYAH BAY 1930 52 350/ 3 1023.0S LAKE MURRAY 1950 53 CALM / 1 1022.7F ACE BASIN NERRS 1945 57 50/ 2 1023.0S FORT PULASKI 2000 57 62 60/ 9/ 12 1023.3 SAPELO ISLAND 2000 61 50/ 9 1022.0 $$ ANZ835-935-AMZ111-154-330-350-352-354-370-450-454-472-032100- ...C-MAN AND BUOY OBSERVATIONS... STATION/POSITION TIME TEMP WIND PRES WAVE SWELL AIR SEA DIR/SP/G HT/PER HT/PER/DIR (UTC) (F) (DEG/KT/KT) (MB) (FT/S) (FT/S/D) BUOY 41004 1950 57 75 20/ 14/ 17 1022.5R 4/ 6 2/130/ 8 BUOY 41008 1950 62 65 40/ 10/ 14 1022.3R 3/ 5 2/110/ 8 FOLLY BEACH CMAN 2000 53 80/ 6/ 8 1023.9F CAPERS NEARSHORE 1908 53 62 60/ 10/ 14 1023.3F FRIPP NEARSHORE 2008 56 62 70/ 10/ 14 1023.4R STATION/POSITION TIME TEMP WIND PRES WAVE SWELL AIR SEA DIR/SP/G HT/PER HT/PER/DIR (UTC) (F) (DEG/KT/KT) (MB) (FT/S) (FT/S/D) 5E ST. MARYS GA 2000 66 N/A 3/ 9 FRYING PAN BUOY 2010 52 73 10/ 12/ 17 1023.0 BUOY 41025 1950 59 74 360/ 16/ 19 1021.6S 5/ 8 3/ 30/ 8 CAPE LOOKOUT NC 2000 51 340/ 8/ 10 1022.5R BUOY 41002 1950 64 74 360/ 14/ 17 1019.5F 6/ 7 5/ 7 BUOY 41010 NOT AVBL ST AUGUSTINE FL 2000 66 67 20/ 14/ 14 1021.4F $$

USA.gov is the U.S. government's official web portal to all federal, state and local government web resources and services.